SCP
0 0 0 0 0 0 0 0 0 0 0 0 0 0 0 0 0 0 0 0 0 0 0 0 0 0 0 0 0 0 0 0 0 0 0 0 0 0 0 0 0 0 0
0 0 0 0 0 0 0 0 0 0 0 0 0 0 0 0 0 0 0 0 0 0 0 0 0 0 0 0 0 0 0 0 0 0 0 0 0 0 0 0 0 0 0
0 0 0 0 0 0 0 0 0 0 0 0 0 0 0 0 0 0 0 0 0 0 0 0 0 0 0 0 0 0 0 0 0 0 0 0 0 0 0 0 0 0 0
0 0 0 0 0 0 0 0 0 0 0 0 0 0 0 0 0 0 0 0 0 0 0 0 0 0 0 0 0 0 0 0 0 0 0 0 0 0 0 0 0 0 0
0 0 0 0 0 0 0 0 0 0 0 0 0 0 0 0 0 0 0 0 0 0 0 0 0 0 0 0 0 0 0 0 0 0 0 0 0 0 0 0 0 0 0
0 0 0 0 0 0 0 0 0 0 0 0 0 0 0 0 0 0 0 0 0 0 0 0 0 0 0 0 0 0 0 0 0 0 0 0 0 0 0 0 0 0 0
0 0 0 0 0 0 0 0 0 0 0 0 0 0 0 0 0 0 0 0 0 0 0 0 0 0 0 0 0 0 0 0 0 0 0 0 0 0 0 0 0 0 0
0 0 0 0 0 0 0 0 0 0 0 0 0 0 0 0 0 0 0 0 0 0 0 0 0 0 0 0 0 0 0 0 0 0 0 0 0 0 0 0 0 0 0
0 0 0 0 0 0 0 0 0 0 0 0 0 0 0 0 0 0 0 0 0 0 0 0 0 0 0 0 0 0 0 0 0 0 0 0 0 0 0 0 0 0 0
0 0 0 0 0 0 0 0 0 0 0 0 0 0 0 0 0 0 0 0 0 0 0 0 0 0 0 0 0 0 0 0 0 0 0 0 0 0 0 0 0 0 0
0 0 0 0 0 0 0 0 0 0 0 0 0 0 0 0 0 0 0 0 0 0 0 0 0 0 0 0 0 0 0 0 0 0 0 0 0 0 0 0 0 0 0
0 0 0 0 0 0 0 0 0 0 0 0 0 0 0 0 0 0 0 0 0 0 0 0 0 0 0 0 0 0 0 0 0 0 0 0 0 0 0 0 0 0 0
0 0 0 0 0 0 0 0 0 0 0 0 0 0 0 0 0 0 0 0 0 0 0 0 0 0 0 0 0 0 0 0 0 0 0 0 0 0 0 0 0 0 0
0 0 0 0 0 0 0 0 0 0 0 0 0 0 0 0 0 0 0 0 0 0 0 0 0 0 0 0 0 0 0 0 0 0 0 0 0 0 0 0 0 0 0
-0 0 0 0 0 0 0 0 0 0 0 0 0 0 0 0 0 0 0 0 0 0 0 0 0 0 0 0 0 0 0 0 0 0 0 0 0 0 0 0 0 0 0
-0 -0 0 0 0 0 0 0 0 0 0 0 0 0 0 0 0 0 0 0 0 0 0 0 0 0 0 0 0 0 0 0 0 0 0 0 0 0 0 0 0 0 0
-0 -0 0 0 0 0 0 0 0 0 0 0 0 0 0 0 0 0 0 0 0 0 0 0 0 0 0 0 0 0 0 0 0 0 0 0 0 0 0 0 0 0 0
-0 0 0 0 0 0 0 0 0 0 0 0 0 0 0 0 0 0 0 0 0 0 0 0 0 0 0 0 0 0 0 0 0 0 0 0 0 0 0 0 0 0 0
0 0 0 0 0 0 0 0 0 0 0 0 0 0 0 0 0 0 0 0 0 0 0 0 0 0 0 0 0 0 0 0 0 0 0 0 0 0 0 0 0 0 0
0 0 0 0 0 0 0 0 0 0 0 0 0 0 0 0 0 0 0 0 0 0 0 0 0 0 0 0 0 0 0 0 0 0 0 0 0 0 0 0 0 0 0
0 0 0 0 0 0 0 0 0 0 0 0 0 0 0 0 0 0 0 0 0 0 0 0 0 0 0 0 0 0 0 0 0 0 0 0 0 0 0 0 0 0 0
0 0 0 0 0 0 0 0 0 0 0 0 0 0 0 0 0 0 0 0 0 0 0 0 0 0 0 0 0 0 0 0 0 0 0 0 0 0 0 0 0 0 0
0 0 0 0 0 0 0 0 0 0 0 0 0 0 0 0 0 0 0 0 0 0 0 0 0 0 0 0 0 0 0 0 0 0 0 0 0 0 0 0 0 0 0
0 0 0 0 0 0 0 0 0 0 0 0 0 0 0 0 0 0 0 0 0 0 0 0 0 0 0 0 0 0 0 0 0 0 0 0 0 0 0 0 0 0 0
0 0 0 0 0 0 0 0 0 0 0 0 0 0 0 0 0 0 0 0 0 0 0 0 0 0 0 0 0 0 0 0 0 0 0 0 0 0 0 0 0 0 0
0 0 0 0 0 0 0 0 0 0 0 0 0 0 0 0 0 0 0 0 0 0 0 0 0 0 0 0 0 0 0 0 0 0 0 0 0 0 0 0 0 0 0
Wind_Speed
7 6 5 5 4 4 4 4 3 3 3 3 3 3 3 3 3 3 3 4 4 4 3 4 5 4 3 3 3 3 4 4 6 5 3 3 4 6 6 5 5 5 5
7 6 6 5 4 4 4 4 4 4 4 4 3 3 4 4 3 4 5 4 5 5 5 5 6 4 4 4 3 4 4 5 6 7 4 3 5 5 6 6 5 5 5
7 7 6 6 6 6 5 5 4 4 4 4 4 4 5 4 4 5 5 5 6 6 6 6 6 5 6 5 5 5 4 5 5 5 5 3 4 4 4 5 5 4 5
8 8 7 7 7 7 6 5 5 5 5 5 5 5 5 5 5 5 5 6 6 6 6 7 7 7 7 7 5 6 5 5 5 5 6 5 5 4 4 4 5 4 4
8 8 9 7 6 6 6 6 5 5 6 5 5 5 5 5 6 6 6 6 6 7 7 7 8 9 11 8 6 6 6 5 5 5 6 5 5 4 4 3 5 5 5
9 9 8 6 6 7 7 6 5 6 5 5 6 6 6 6 8 10 7 6 7 7 8 8 8 9 11 12 12 11 9 8 7 6 6 7 8 6 5 5 4 4 4
9 8 7 7 7 8 7 6 6 7 5 6 6 7 7 9 11 11 11 7 8 8 9 8 7 7 8 7 9 10 10 12 13 9 9 10 9 7 6 6 6 6 6
8 8 7 8 8 7 6 7 7 5 5 6 7 7 7 9 12 12 12 8 8 9 9 9 9 9 8 8 8 8 9 9 9 9 10 11 10 9 8 7 7 7 6
8 8 8 8 7 7 7 8 6 5 6 6 6 7 8 10 12 13 11 6 7 10 10 9 10 10 12 11 8 9 9 9 9 12 12 12 13 12 9 6 6 5 6
9 8 7 7 7 8 8 7 5 5 7 6 7 8 9 10 12 13 11 6 8 8 8 8 12 13 13 11 9 9 10 10 8 7 7 9 10 10 11 10 8 7 6
5 5 4 5 6 6 5 4 4 5 5 6 7 8 8 11 12 14 12 7 8 8 7 7 7 12 14 13 11 10 12 10 7 7 7 7 7 7 7 8 9 9 9
3 3 3 3 3 3 3 4 4 5 5 6 6 8 7 8 10 12 13 13 11 9 9 8 8 11 12 12 10 11 14 10 7 6 7 8 8 8 7 8 9 10 11
3 2 1 1 1 2 3 4 3 3 4 5 5 7 7 6 7 13 14 14 14 10 9 11 11 11 10 10 12 13 10 7 7 7 9 9 8 8 7 6 7 8 10
3 1 1 0 0 1 2 2 3 4 4 5 6 7 7 7 7 6 6 7 9 9 9 9 10 10 9 10 9 8 7 7 8 9 9 8 7 6 7 6 6 5 6
3 2 2 1 1 2 2 3 4 5 6 6 6 7 7 8 10 10 7 6 6 5 4 4 4 4 5 6 6 7 6 6 8 8 8 8 7 7 7 6 6 6 6
3 2 1 1 1 2 3 4 5 8 10 11 13 11 9 13 15 15 13 13 11 7 5 5 6 7 7 7 7 7 6 7 7 7 7 8 7 7 7 6 6 7 7
2 1 0 1 1 2 3 4 6 7 8 10 12 12 13 14 15 15 14 11 9 8 6 7 8 8 8 7 7 7 7 7 6 7 8 8 8 7 7 6 6 7 8
1 0 1 1 2 2 3 4 4 6 7 7 8 11 13 13 14 13 10 5 4 6 7 8 8 8 8 7 7 7 7 7 6 7 8 8 7 7 7 7 7 8 7
0 1 1 2 2 3 4 4 5 6 6 7 8 9 10 10 10 9 5 5 7 7 8 8 8 8 8 8 8 8 8 7 8 7 7 8 7 7 8 8 7 9 8
1 4 3 2 3 3 4 4 5 6 6 7 7 8 7 6 6 6 4 5 7 8 8 8 8 8 8 8 8 7 7 8 8 7 7 7 7 7 8 9 8 7 7
2 3 5 3 3 4 4 5 6 6 7 7 8 9 10 8 8 8 7 7 7 8 8 8 8 8 8 8 7 8 9 8 7 7 7 7 7 7 7 7 8 8 7
2 3 3 4 4 5 5 6 6 7 8 9 8 9 11 8 7 8 8 8 7 7 7 7 7 7 7 7 7 7 8 8 8 7 7 7 7 7 7 7 7 7 7
3 4 4 4 5 6 7 6 6 7 8 9 9 9 8 7 7 8 8 8 7 7 6 6 7 7 7 6 7 7 7 8 7 7 7 7 7 7 7 8 9 8 8
3 4 5 5 5 6 6 7 7 7 8 9 9 8 8 8 8 9 9 8 7 7 6 6 7 9 10 7 6 6 6 7 6 6 9 8 7 6 6 7 7 8 8
3 4 5 5 5 6 7 7 8 8 8 9 9 9 9 8 8 8 8 8 8 8 8 7 6 7 9 9 7 6 5 6 6 6 6 6 7 7 7 7 7 7 7
4 5 5 5 5 6 6 7 8 8 9 9 9 9 9 8 9 9 8 8 8 7 7 6 6 7 8 6 7 6 5 5 5 6 5 6 7 7 7 6 8 7 8
Wind_Direction
186 188 185 186 185 182 190 204 204 207 208 216 226 232 241 245 237 227 239 240 240 251 248 241 251 249 248 244 232 225 223 219 248 266 258 270 275 281 293 293 285 278 274
187 183 188 186 182 191 207 215 209 215 219 222 226 233 243 245 240 236 250 248 244 253 255 248 255 252 248 247 240 238 234 224 235 264 270 267 261 271 279 287 285 279 272
180 181 186 188 192 204 213 215 211 215 224 226 224 233 242 246 247 246 247 253 251 252 253 251 255 250 254 249 242 244 244 241 230 250 269 264 266 269 280 281 282 280 278
179 183 192 199 202 208 211 212 213 216 222 228 229 235 241 247 250 252 250 252 254 255 253 251 252 247 250 251 248 245 243 245 241 247 262 267 266 267 261 271 280 273 278
180 190 203 205 205 207 210 215 216 219 227 229 234 242 244 245 247 247 246 250 251 258 260 255 254 253 250 245 245 243 238 242 246 250 259 263 262 259 255 254 269 280 276
185 199 202 195 198 209 216 215 217 226 230 228 234 241 247 247 249 250 245 248 251 254 262 263 261 261 261 258 253 248 235 236 244 247 253 257 261 257 254 251 258 271 277
192 199 197 196 203 212 214 213 220 226 226 231 237 238 245 252 254 258 254 247 249 251 253 259 263 260 254 258 263 263 255 244 236 240 251 255 258 250 245 252 247 247 253
196 201 199 199 208 210 207 218 224 220 222 231 238 238 244 255 255 255 256 250 251 252 249 248 252 260 256 250 258 263 262 257 247 242 244 251 253 252 241 247 255 259 261
201 208 206 200 204 206 212 222 220 216 226 229 235 237 242 257 257 256 252 247 251 256 253 247 243 251 254 246 246 256 265 267 257 245 242 249 251 249 240 238 238 240 257
206 207 202 195 200 210 218 223 218 218 232 236 242 241 241 252 257 254 245 237 249 256 257 250 241 241 249 244 237 243 257 265 268 271 262 261 259 257 242 231 232 236 247
196 186 186 194 205 216 221 222 224 228 238 243 251 256 251 251 259 259 246 228 238 249 254 255 248 238 241 244 237 237 244 254 265 266 269 268 264 256 248 235 228 228 234
155 172 193 202 212 218 220 234 233 231 241 252 259 268 264 256 251 257 252 236 230 237 248 252 251 247 244 246 243 241 245 249 254 257 260 262 260 256 250 243 235 232 235
136 169 209 209 209 217 225 242 246 239 245 258 260 266 272 269 260 252 255 251 237 231 244 246 250 253 254 254 248 246 245 241 239 246 253 257 255 257 257 252 246 239 241
117 118 103 87 307 251 231 234 243 251 256 261 263 266 270 273 272 266 258 256 249 239 244 252 255 255 251 253 257 251 240 234 234 244 253 259 259 254 249 242 245 239 240
98 86 69 41 326 303 288 262 258 254 247 252 263 262 266 271 268 262 261 259 249 244 241 247 248 248 250 250 250 250 245 237 236 241 247 254 254 252 251 239 235 233 233
83 64 45 4 321 305 302 301 274 264 275 266 256 255 260 258 270 278 273 263 256 238 215 239 247 247 249 253 255 257 249 241 238 238 240 243 246 247 250 241 230 231 237
87 60 6 347 326 315 308 305 308 308 298 288 278 271 260 269 276 277 275 269 252 206 214 237 244 247 249 249 249 250 253 251 243 238 240 240 241 243 244 244 236 234 238
96 20 336 301 300 298 298 297 295 298 306 306 299 290 285 280 280 279 275 251 236 208 227 238 244 246 248 248 248 248 252 254 247 242 241 241 238 238 240 241 237 236 238
4 299 290 287 288 291 295 295 292 293 292 294 300 302 300 297 290 285 251 226 245 244 237 240 244 246 246 246 247 248 248 250 249 244 242 241 238 235 238 240 240 236 235
286 293 300 290 295 298 295 292 293 294 295 296 296 298 305 307 301 297 268 251 255 258 253 248 247 245 245 246 245 245 247 248 249 246 244 241 238 235 239 242 240 236 230
280 294 306 302 288 287 289 289 291 292 293 294 292 291 292 291 288 286 281 269 261 260 258 254 251 250 247 245 244 245 247 248 245 244 243 240 236 235 235 237 238 237 234
269 280 287 289 290 290 290 288 290 290 291 293 295 297 295 288 286 286 284 279 273 263 257 255 257 254 250 248 246 246 249 249 246 243 242 240 236 234 233 232 233 233 231
270 282 289 291 291 293 295 294 293 293 293 294 295 297 298 296 292 291 289 286 283 276 268 259 259 261 257 250 245 245 248 250 248 246 244 243 239 235 231 231 232 233 229
275 283 289 293 296 298 299 299 298 297 298 299 299 297 297 297 294 293 292 289 286 282 277 268 262 265 269 266 255 250 249 252 254 249 244 242 241 237 233 233 232 230 230
275 281 285 288 293 296 299 301 301 301 302 302 300 299 300 299 298 298 298 297 295 288 285 279 271 273 275 273 269 266 259 252 250 247 243 239 238 235 233 233 231 228 225
280 283 286 288 290 293 297 299 301 303 302 302 301 301 303 302 301 302 303 302 300 295 292 289 286 287 286 282 282 282 266 253 246 242 241 239 237 234 230 233 233 225 219